Location: Invercargill
(46.4000°S, 168.3500°E)
Time: 21:45:17
(UTC+12:00)

Daily predictions for brighter satellites

Satellite Brightness Start Highest point End
(mag) Time Altitude Azimuth Time Altitude Azimuth Time Altitude Azimuth
Cosmos 2360 Rocket 2.7 17:46:24 10° NW 17:52:01 65° WSW 17:57:42 10° SSE
Cosmos 2219 Rocket 2.4 17:46:57 10° N 17:52:24 54° ENE 17:57:53 10° SE
Cosmos 1825 Rocket 3.6 17:50:07 10° N 17:54:34 76° E 17:59:03 10° SSE
Cosmos 1953 Rocket 3.9 17:50:15 10° NNE 17:54:35 50° E 17:59:00 10° SSE
Nadezhda 4 Rocket 4.1 17:49:16 10° NNE 17:55:15 56° E 18:01:21 10° SSE
Cosmos 2058 3.9 17:57:47 10° NNE 18:01:18 27° E 18:04:53 10° SSE
Cosmos-2242 3.5 17:57:21 10° SSW 18:01:48 69° W 18:06:08 10° N
Cosmos 1486 Rocket 4.1 17:56:31 10° SSW 18:01:52 89° ESE 18:07:12 10° NNE
Atlas Centaur 2 4.4 17:58:49 10° NNW 18:01:56 15° N 18:05:26 10° NE
COSMO-SKYMED 1 2.9 18:01:51 10° N 18:06:14 77° WNW 18:10:41 10° SSW
CENTAUR R/B 3.4 17:58:57 10° NW 18:06:49 60° SW 18:13:30 10° SE
Cosmos 1992 Rocket 4.0 18:02:05 10° N 18:07:18 68° ENE 18:12:35 10° SSE
H-2A R/B 2.7 18:04:07 10° N 18:08:14 59° WNW 18:12:22 10° SSW
CZ-2C R/B 3.0 18:03:00 10° NE 18:08:24 48° ESE 18:13:48 10° S
ADEOS 3.7 18:03:20 10° SSE 18:08:40 85° WSW 18:13:56 10° NNW
USA 234 3.6 18:03:24 10° ESE 18:09:51 52° NE 18:16:14 10° NNW
Cosmos 1825 2.7 18:07:42 10° NNE 18:11:14 37° E 18:14:48 10° SSE
Cosmos 1842 Rocket 4.1 18:08:42 10° S 18:12:54 37° ESE 18:17:05 10° NE
Cosmos 1408 2.6 18:10:56 10° N 18:14:40 73° E 18:18:27 10° SSE
Cosmos 405 Rocket 3.6 18:13:43 10° NNE 18:16:57 28° E 18:20:16 10° SSE
Envisat 3.0 18:13:03 10° SSE 18:18:13 69° ENE 18:23:19 10° N
IRIDIUM 106 4.4 18:19:17 10° S 18:24:33 60° E 18:29:44 10° NNE
Cosmos 1437 Rocket 3.6 18:22:42 10° SSE 18:26:02 27° ESE 18:29:19 10° NE
Cosmos 1356 4.0 18:23:20 10° NNE 18:26:31 36° E 18:29:45 10° SSE
Cosmos 2221 2.6 18:24:17 10° S 18:28:33 53° ESE 18:32:46 10° NNE
SL-16 R/B 4.0 18:27:17 10° ENE 18:28:38 11° E 18:28:38 11° E
Cosmos 2322 4.1 18:23:52 10° NW 18:29:35 69° WSW 18:35:22 10° SSE
CZ-4B R/B 1.5 18:28:51 10° N 18:31:55 69° W 18:35:04 10° SSW
Cosmos 1606 3.5 18:29:41 10° S 18:33:07 30° ESE 18:36:30 10° NE
SL-8 R/B 4.5 18:30:59 10° NW 18:35:30 39° NNE 18:38:38 18° E
Cosmos 1689 Rocket 2.7 18:34:33 10° NE 18:37:10 32° ESE 18:39:50 10° S
ATLAS 3B R/B 3.0 18:31:30 10° NNW 18:38:49 57° ENE 18:45:30 12° SE
Meteor 2-15 Rocket 4.5 18:34:17 10° S 18:40:26 61° ESE 18:46:28 10° NNE
Cosmos 2333 Rocket 2.8 18:39:07 10° NW 18:44:41 56° WSW 18:50:19 10° SSE
PSLV R/B 3.9 18:41:14 10° NNE 18:45:25 85° ESE 18:49:37 10° SSW
YAOGAN 6 3.4 18:42:45 10° S 18:46:15 52° WSW 18:49:42 10° NNW
Cosmos 1461 3.6 18:44:07 10° SSW 18:48:06 37° SE 18:50:14 23° E
Cosmos 1553 Rocket 4.1 18:44:38 10° S 18:50:36 47° ESE 18:56:28 10° NNE
Cosmos 1076 Rocket 3.7 18:47:04 10° NNE 18:51:12 48° E 18:55:26 10° SSE
Cosmos 1777 Rocket 4.0 18:46:21 10° SSW 18:51:39 60° ESE 18:56:51 10° NE
H-2A R/B 4.3 18:49:52 10° S 18:53:30 36° WSW 18:57:02 10° NW
Genesis I 3.2 18:53:22 10° NNW 18:57:17 63° NE 18:59:04 30° SE
CZ-4B R/B 4.0 18:53:03 10° S 18:57:27 50° WSW 19:01:39 10° NW
PSLV R/B 3.6 18:54:03 10° SSE 18:57:55 68° ENE 19:01:40 10° N
deb Chang Zheng 4 3.6 18:53:41 10° SSE 18:58:07 85° WSW 19:02:30 10° NNW
Cosmos 2237 Rocket 2.3 18:53:16 10° N 18:58:48 56° ENE 19:03:17 16° SE
Cosmos 2098 Rocket 3.2 18:57:06 10° NNW 19:00:18 47° W 19:03:14 10° S
CZ-2C R/B 3.4 18:59:03 22° SE 19:01:24 34° E 19:05:44 10° NNE
CORIOLIS 4.3 18:57:16 10° SSE 19:02:39 52° E 19:07:59 10° N
Cosmos 2151 3.4 19:01:12 10° NNE 19:05:06 37° E 19:05:44 35° ESE
SJ 16-02 1.9 19:01:53 10° S 19:06:02 36° ESE 19:06:30 35° ESE
Okean O Rocket 2.2 19:06:03 33° ESE 19:06:43 35° E 19:10:50 10° NNE
NOAA 12 4.0 19:01:47 10° SSE 19:07:13 77° ENE 19:12:32 10° N
ERS-2 2.0 19:04:05 10° NNE 19:07:44 64° ESE 19:11:27 10° S
BREEZE-M DEB 1.8 19:06:32 10° WNW 19:09:24 70° N 19:09:24 70° N
ATLAS CENTAUR R/B 2.8 19:07:27 10° SSW 19:10:37 23° SSE 19:10:37 23° SSE
Cosmos 1633 2.6 19:10:49 10° N 19:14:15 54° E 19:14:15 54° E
Cosmos 1943 Rocket 3.1 19:10:52 10° S 19:15:49 29° SE 19:15:55 29° SE
Radarsat 4.5 19:12:24 10° SSE 19:17:42 70° ENE 19:22:55 10° N
Cosmos 2278 Rocket 2.6 19:15:34 10° SSW 19:21:15 64° WNW 19:26:52 10° NNE
Cosmos 1655 Rocket 4.2 19:16:06 10° NNE 19:22:06 47° E 19:28:13 10° SSE
SAR-Lupe-4 3.8 19:19:54 10° N 19:23:31 69° WNW 19:27:11 10° SSW
Cosmos 1939 Rocket 2.8 19:23:03 33° SSE 19:24:52 72° E 19:29:03 10° N
NOSS 0 Rocket 4.1 19:20:26 10° NW 19:26:40 75° WSW 19:31:59 15° SSE
Cosmos 2369 Rocket 3.7 19:22:43 10° S 19:25:49 20° SSE 19:25:49 20° SSE
DMSP B5D2-2 4.5 19:21:50 10° N 19:27:05 66° WNW 19:32:25 10° SSW
Cosmos 2292 Rocket 3.7 19:23:18 10° N 19:27:30 77° E 19:33:14 10° S
Meteor 2-3 Rocket 3.9 19:22:22 10° NNE 19:27:44 48° E 19:29:42 34° SE
CZ-4B R/B 3.1 19:24:12 15° SSE 19:28:40 63° ENE 19:33:56 10° N
COSMOS 2428 4.0 19:25:23 10° WNW 19:30:40 37° SW 19:36:00 10° SSE
PAYLOAD B 4.2 19:25:40 10° SSE 19:31:22 90° SW 19:36:58 10° NNW
H-2A R/B 3.7 19:33:35 26° N 19:33:35 26° N 19:35:25 10° N
Lacrosse 5 1.8 19:28:35 10° SW 19:33:45 72° SE 19:34:45 56° E
Cosmos 1242 Rocket 3.9 19:31:40 10° S 19:33:40 30° S 19:33:40 30° S
Cosmos 2219 Rocket 3.9 19:31:48 10° WNW 19:36:39 29° SW 19:41:32 10° S
SMAP 3.6 19:33:42 10° S 19:38:23 61° WSW 19:43:01 10° NNW
Meteor 2-21 Rocket 4.5 19:34:33 10° N 19:40:38 58° E 19:46:48 10° SSE
Atlas Centaur 2 4.5 19:46:12 10° NW 19:49:58 17° N 19:52:49 13° NNE
USA 234 3.6 19:50:02 34° SE 19:52:56 61° SSW 19:59:25 10° WNW
Cosmos 883 Rocket 4.4 19:49:41 10° S 19:55:54 65° ESE 19:56:26 62° ENE
Cosmos 1867 3.7 19:52:15 10° SSW 19:57:04 60° SSE 19:57:04 60° SSE
CENTAUR R/B 4.3 19:53:09 10° WSW 19:58:45 23° SSW 20:02:05 16° SSE
Cosmos 1980 4.5 19:55:00 10° NW 20:00:31 50° WSW 20:03:49 24° S
SL-16 R/B 2.6 20:06:26 10° NNW 20:10:36 50° N 20:10:36 50° N
BREEZE-M DEB (TANK) 3.7 20:07:05 10° WNW 20:14:26 72° WSW 20:14:26 72° WSW
Cosmos 2266 Rocket 3.9 20:09:31 10° N 20:15:36 84° W 20:21:51 10° S
SL-8 R/B 4.5 20:12:56 10° WNW 20:16:36 51° W 20:16:36 51° W
Cosmos 2297 3.9 20:17:12 10° SSW 20:22:22 69° SW 20:22:22 69° SW
ATLAS CENTAUR R/B 4.2 20:09:23 10° WNW 20:26:50 59° SSW 20:29:37 42° SSE
ATLAS 3B R/B 3.7 20:22:42 10° WNW 20:29:50 44° SW 20:32:46 31° S
Cosmos 2315 Rocket 4.3 20:25:13 10° S 20:30:20 60° SSW 20:30:20 60° SSW
Okean O Rocket 3.6 20:43:30 27° WSW 20:43:30 27° WSW 20:46:44 10° WNW
Cosmos 2237 Rocket 3.9 20:38:21 10° WNW 20:43:13 28° SW 20:45:08 24° SSW
SJ 16-02 3.6 20:40:46 10° SW 20:43:33 24° W 20:43:33 24° W
ATLAS CENTAUR R/B 4.2 20:46:04 10° SW 20:46:47 14° SW 20:46:47 14° SW
Cosmos 1943 Rocket 3.7 20:54:18 10° SW 20:57:27 32° SW 20:57:27 32° SW
Cosmos 2369 Rocket 4.3 21:06:02 10° SSW 21:07:37 19° SSW 21:07:37 19° SSW
Lacrosse 5 4.4 21:12:10 10° WSW 21:13:59 18° W 21:13:59 18° W
